This demonstration page uses our WeatherBlox Daily Observations layout. Learn more.

Left ArrowRight Arrow

Hourly Observations for October 9, 2015

Temp ( °F °C ) Dew Point ( °F °C ) Humidity (%) Winds ( mph kmh ) Pressure ( in mb ) Visibility ( mi km ) Precip ( " mm )
12:53 am 00:53 Clear 49 9.4 44 6.7 83 83 S 3 6 30.14 1021 10 16 0.00 0.00
1:53 am 01:53 Clear 49 9.4 45 7.2 86 86 SSE 7 11 30.11 1020 10 16 0.00 0.00
2:53 am 02:53 Clear 51 10.6 46 7.8 83 83 Calm 30.09 1019 10 16 0.00 0.00
3:53 am 03:53 Clear 51 10.6 46 7.8 83 83 W 3 6 30.08 1019 10 16 0.00 0.00
4:53 am 04:53 Clear 52 11.1 47 8.3 83 83 SSW 8 13 30.05 1018 10 16 0.00 0.00
5:53 am 05:53 Clear 52 11.1 47 8.3 83 83 SW 12 19 30.03 1017 10 16 0.00 0.00
6:53 am 06:53 Clear 52 11.1 47 8.3 83 83 WSW 10 17 30.04 1017 10 16 0.00 0.00
7:53 am 07:53 Sunny 58 14.4 47 8.3 67 67 SW 13 20 30.01 1016 10 16 0.00 0.00
8:53 am 08:53 Mostly Sunny 56 13.3 48 8.9 75 75 SSW 10 17 29.98 1015 10 16 0.00 0.00
9:53 am 09:53 Sunny 64 17.8 48 8.9 56 56 WSW 8 13 29.96 1014 10 16 0.00 0.00
10:53 am 10:53 Sunny 68 20 47 8.3 47 47 WSW 21 33 29.93 1014 10 16 0.00 0.00
11:53 am 11:53 Sunny 70 21.1 48 8.9 46 46 WSW 18 30 29.91 1013 10 16 0.00 0.00
12:53 pm 12:53 Sunny 74 23.3 49 9.4 41 41 SW 16 26 29.88 1012 10 16 0.00 0.00
1:53 pm 13:53 Sunny 79 26.1 47 8.3 32 32 SW 17 28 29.85 1011 10 16 0.00 0.00
2:53 pm 14:53 Sunny 82 27.8 39 3.9 22 22 W 24 39 29.82 1010 10 16 0.00 0.00
3:53 pm 15:53 Sunny 82 27.8 41 5 23 23 WSW 22 35 29.81 1009 10 16 0.00 0.00
4:53 pm 16:53 Sunny 82 27.8 41 5 23 23 SW 20 31 29.80 1009 10 16 0.00 0.00
5:53 pm 17:53 Sunny 76 24.4 41 5 29 29 WSW 18 30 29.80 1009 10 16 0.00 0.00
6:53 pm 18:53 Clear 69 20.6 42 5.6 38 38 SW 14 22 29.80 1009 10 16 0.00 0.00
7:53 pm 19:53 Clear 65 18.3 44 6.7 47 47 SW 16 26 29.79 1009 10 16 0.00 0.00
8:53 pm 20:53 Clear 67 19.4 43 6.1 42 42 SW 16 26 29.79 1009 10 16 0.00 0.00
9:53 pm 21:53 Clear 67 19.4 42 5.6 41 41 SSW 15 24 29.78 1009 10 16 0.00 0.00
10:53 pm 22:53 Clear 64 17.8 43 6.1 46 46 SW 15 24 29.78 1009 10 16 0.00 0.00
11:53 pm 23:53 Clear 64 17.8 42 5.6 45 45 SW 13 20 29.77 1008 10 16 0.00 0.00

Powered by AerisWeather